Regional Weather Roundup
Issued by NWS

Home | Current Version | Previous Version | Graphics & Text | Print | Product List | Glossary On
Versions: 1 2 3 4 5 6 7 8 9 10 11 12 13 14 15 16 17 18 19 20 21 22 23 24 25 26 27 28 29 30 31 32 33 34 35 36 37 38 39 40 41 42 43 44 45 46 47 48 49 50
000
ASUS43 KMKX 290721
RWRWI

WISCONSIN REGIONAL WEATHER ROUNDUP
NATIONAL WEATHER SERVICE MILWAUKEE/SULLIVAN WI
200 AM CDT WED MAR 29 2017

NOTE: "FAIR" INDICATES FEW OR NO CLOUDS BELOW 12,000 FEET WITH NO
SIGNIFICANT WEATHER AND/OR OBSTRUCTIONS TO VISIBILITY.

WIZ001-002-006>008-014>016-023>028-290800-
NORTHWEST WISCONSIN

CITY           SKY/WX    TMP DP  RH WIND       PRES   REMARKS
SUPERIOR ARPT  CLEAR     35  31  87 NE8       30.30R WCI  28
ASHLAND        CLEAR     31  29  92 N7        30.28F WCI  24
HAYWARD        CLEAR     31  25  78 N7        30.24R WCI  24
SIREN          CLEAR     36  26  67 NE3       30.23R
CUMBERLAND     CLEAR     34  27  75 CALM      30.21S
RICE LAKE      CLEAR     32  31  94 CALM      30.23R
CHETEK         CLEAR     31  28  89 CALM      30.23R
LADYSMITH      CLEAR     37  28  68 E5        30.24R WCI  33
EAU CLAIRE     CLOUDY    35  29  78 NE7       30.21R WCI  29
MENOMONIE      CLOUDY    36  31  82 CALM      30.21S
NEW RICHMOND   CLOUDY    34  30  87 CALM      30.20S
OSCEOLA        CLOUDY    32  28  86 CALM      30.23S
$$

WIZ003>005-009-010-017-018-290800-
NORTH CENTRAL WISCONSIN

CITY           SKY/WX    TMP DP  RH WIND       PRES   REMARKS
MANITOWISH WTR CLEAR     32  28  84 E6        30.24S WCI  26
ARBOR VITAE    CLEAR     37  30  77 SE3       30.24S
WOODRUFF       CLEAR     37  30  77 SE3       30.24S
RHINELANDER    CLEAR     34  29  82 E3        30.25S
EAGLE RIVER    CLEAR     29  26  89 CALM      30.25S
LAND O LAKES   CLEAR     28  26  92 CALM      30.27F
PHILLIPS       CLEAR     30  25  83 CALM      30.23R
TOMAHAWK       CLEAR     25  23  91 CALM      30.25R
MEDFORD        CLEAR     31  29  91 E5        30.23R WCI  26
MERRILL        CLEAR     29  28  95 NE5       30.25S WCI  24
$$

WIZ029-030-035-036-043>047-290800-
CENTRAL WISCONSIN

CITY           SKY/WX    TMP DP  RH WIND       PRES   REMARKS
WAUSAU         CLEAR     35  28  75 CALM      30.23S
MOSINEE        CLEAR     36  30  80 E5        30.25R WCI  32
MARSHFIELD     CLEAR     36  29  75 NE7       30.22R WCI  30
STEVENS POINT  CLEAR     29  28  94 CALM      30.25R
WAUPACA        CLEAR     37  32  83 CALM      30.25R
WAUTOMA        CLEAR     29  26  89 CALM      30.25R
WISC RAPIDS    CLOUDY    36  30  79 CALM      30.24R
CAMP DOUGLAS   CLOUDY    32  29  90 CALM      30.21S
$$

WIZ011>013-019>022-031-037>040-048>050-290800-
NORTHEAST WISCONSIN

CITY           SKY/WX    TMP DP  RH WIND       PRES   REMARKS
ANTIGO         CLEAR     34  28  79 NE5       30.25S WCI  30
SHAWANO        CLEAR     33  31  92 CALM      30.27S
OCONTO         CLEAR     28  27  99 CALM      30.26F
STURGEON BAY   CLEAR     34  32  92 NE5       30.24F WCI  30
GREEN BAY      CLEAR     35  34  96 NE9       30.25F WCI  28
MANITOWOC      CLEAR     33  31  92 N6        30.26S WCI  28
APPLETON       CLEAR     36  30  80 NE3       30.23R
CLINTONVILLE   CLEAR     34  30  86 CALM      30.25S
OSHKOSH        CLEAR     37  30  75 NE6       30.24R WCI  32
$$

WIZ032>034-041-042-053>061-290800-
SOUTHWEST WISCONSIN

CITY           SKY/WX    TMP DP  RH WIND       PRES   REMARKS
LA CROSSE      CLOUDY    43  34  70 S6        30.21R
SPARTA         CLOUDY    31  30  96 CALM      30.23R
VIROQUA        CLOUDY    41  33  73 CALM      30.20R
BOSCOBEL       PTCLDY    37  35  92 CALM      30.21R
PRAIRIE DU CHI PTCLDY    39  37  91 CALM      30.21R
PLATTEVILLE    PTCLDY    40  38  95 E8        30.20R WCI  34
$$

WIZ056-057-062-063-064-067-068-290800-
SOUTH CENTRAL WISCONSIN

CITY           SKY/WX    TMP DP  RH WIND       PRES   REMARKS
REEDSBURG      CLEAR     38  32  79 CALM      30.21S
BARABOO/DELLS  CLEAR     37  32  81 E5        30.21S WCI  34
LONE ROCK      CLOUDY    39  35  86 SE6       30.22R WCI  35
MINERAL POINT  PTCLDY    41  37  87 E9        30.20R
MADISON        CLEAR     35  32  88 SE6       30.22S WCI  30
MIDDLETON      CLEAR     39  36  87 SE3       30.22S
WATERTOWN      FOG       33  33 100 CALM      30.21F VSB 1/2
MONROE         CLOUDY    36  34  93 E5        30.21R WCI  32
JANESVILLE     FOG       36  36 100 E5        30.21F VSB 1/2 WCI  32
$$

WIZ051-052-058>065-066-070>072-290800-
SOUTHEAST WISCONSIN

CITY           SKY/WX    TMP DP  RH WIND       PRES   REMARKS
MILWAUKEE      FOG       34  33  96 SW3       30.23S VSB 1/4
WAUKESHA       FOG       30  30 100 CALM      30.23F VSB 1/4
MILWAUKEE/TIMM FOG       32  30  93 CALM      30.24S VSB 1/4
RACINE         FOG       32  31  96 CALM      30.25S VSB 1/4
KENOSHA        FOG       33  32  96 CALM      30.23S VSB 1/4
FOND DU LAC    CLEAR     35  29  78 N3        30.24R
SHEBOYGAN      CLEAR     32  30  92 CALM      30.24S
WEST BEND      FOG       32  32 100 CALM      30.23S VSB 1/4
JUNEAU         CLEAR     32  31  97 CALM      30.23F FOG
$$

LSZ147-162-290800-
LAKE SUPERIOR

STATION/POSITION TIME  TEMP    WIND        PRES    WAVE
                       AIR SEA DIR/SP/G            HT/PER
                 (UTC) (F)     (DEG/KT/KT) (MB)    (FT/S)
DEVILS ISLAND    0700   36      60/ 17/ 19 1027.1F
PORT WING        0640   34      50/  8/ 11 1025.7S
SAXON HARBOR     0630   29     190/  3/  4 1024.7F
$$

LMZ867-665-643>646-290800-
LAKE MICHIGAN

STATION/POSITION TIME  TEMP    WIND        PRES    WAVE
                       AIR SEA DIR/SP/G            HT/PER
                 (UTC) (F)     (DEG/KT/KT) (MB)    (FT/S)
CHAMBERS ISLAND  0640   32      CALM  /  2 1025.1S
NORTHPORT PIER   0640   36     330/  5/  7 1025.4S
SISTER BAY       0605   33        CALM       N/A
KEWAUNEE LAKESHO 0654   36      20/  4/  7 1023.8F
SHEBOYGAN LAKESH 0700   36     360/  7/  8 1024.7F
PORT WASHINGTON  0640   33     300/  3/  6 1024.7S
MILWAUKEE LAKESH 0700   33     310/  3/  4   N/A
KENOSHA   LAKESH 0700   33        CALM     1023.7
$$

TC  - TEMPERATURE IN CELSIUS
VSB - VISIBILITY IN STATUTE MILES
WCI - WIND CHILL INDEX
HX  - HEAT INDEX




USA.gov is the U.S. government's official web portal to all federal, state and local government web resources and services.